Weather History for Blue Canyon, CA

Change the Weather History Date:

Tuesday, May 6, 2014

  Actual Average Record
Temperature  
Mean Temperature 43 °F -  
Max Temperature 53 °F 57 °F 80 °F (1987)
Min Temperature 34 °F 39 °F 22 °F (1964)
Degree Days  
Heating Degree Days 22    
Moisture  
Dew Point 30 °F    
Average Humidity 62    
Maximum Humidity 92    
Minimum Humidity 39    
Precipitation  
Precipitation 0.00 in - - ()
Sea Level Pressure  
Sea Level Pressure 29.84 in    
Wind  
Wind Speed 4 mph (NNW)    
Max Wind Speed 10 mph    
Max Gust Speed 16 mph    
Visibility 10 miles    
Events      
Averages and records for this station are not official NWS values.
T = Trace of Precipitation, MM = Missing Value Source: NWS Daily Summary

Daily Weather History Graph

Daily Weather History Graph

Search for Another Location

Airport:

Trip Planner

Search our weather history database for the weather conditions in past years. The results will help you decide how hot, cold, wet, or windy it might be!

Date:

Astronomy

May. 06, 2014 Rise Set
Actual Time 5:58 AM PDT 8:01 PM PDT
Civil Twilight 5:28 AM PDT 8:30 PM PDT
Nautical Twilight 4:53 AM PDT 9:06 PM PDT
Astronomical Twilight 4:14 AM PDT 9:45 PM PDT
Moon 12:18 PM PDT (5/6) 1:23 AM PDT (5/6)
Length of Visible Light 15h 01m
Length of Day
14h 02m
Waxing Crescent, 47% of the Moon is Illuminated
May 6
Waxing Crescent
May 6
First Quarter
May 14
Full
May 21
Last Quarter
May 28
New

Hourly Weather History & Observations

Time (PDT) Temp. Windchill Dew Point Humidity Pressure Visibility Wind Dir Wind Speed Gust Speed Precip Events Conditions
12:52 AM 34.0 °F - 30.9 °F 89% 29.82 in 10.0 mi Calm Calm - N/A   Overcast
4:52 AM 34.0 °F - 32.0 °F 92% 29.79 in 10.0 mi Calm Calm - N/A   Overcast
5:52 AM 36.0 °F 33.3 °F 30.9 °F 82% 29.79 in 10.0 mi North 3.5 mph - N/A   Overcast
6:52 AM 35.1 °F - 32.0 °F 89% 29.81 in 10.0 mi Calm Calm - N/A   Overcast
7:52 AM 37.0 °F - 33.1 °F 86% 29.82 in 10.0 mi Calm Calm - N/A   Clear
8:52 AM 39.9 °F 37.8 °F 33.1 °F 77% 29.84 in 10.0 mi Variable 3.5 mph - N/A   Partly Cloudy
9:52 AM 42.1 °F 37.1 °F 32.0 °F 67% 29.85 in 10.0 mi NNW 8.1 mph - N/A   Partly Cloudy
10:52 AM 43.0 °F 38.2 °F 30.9 °F 62% 29.86 in 10.0 mi North 8.1 mph - N/A   Overcast
10:59 AM 43.0 °F 38.8 °F 30.9 °F 62% 29.89 in 10.0 mi Variable 6.9 mph - N/A   Overcast
11:52 AM 46.0 °F 41.0 °F 30.9 °F 56% 29.86 in 10.0 mi NE 10.4 mph 16.1 mph N/A   Mostly Cloudy
12:52 PM 46.0 °F 41.4 °F 28.0 °F 50% 29.86 in 10.0 mi North 9.2 mph - N/A   Overcast
1:52 PM 48.0 °F - 27.0 °F 44% 29.85 in 10.0 mi Variable 6.9 mph - N/A   Overcast
2:52 PM 50.0 °F - 27.0 °F 41% 29.83 in 10.0 mi NW 6.9 mph - 0.00 in   Overcast
3:52 PM 51.1 °F - 27.0 °F 39% 29.83 in 10.0 mi NW 8.1 mph - N/A   Mostly Cloudy
4:52 PM 52.0 °F - 28.0 °F 40% 29.83 in 10.0 mi NNW 9.2 mph - N/A   Mostly Cloudy
5:52 PM 50.0 °F - 32.0 °F 50% 29.83 in 10.0 mi WNW 8.1 mph - N/A   Scattered Clouds
6:52 PM 48.9 °F - 33.1 °F 54% 29.85 in 10.0 mi West 9.2 mph - N/A   Mostly Cloudy
7:52 PM 46.9 °F - 32.0 °F 56% 29.86 in 10.0 mi Variable 4.6 mph - N/A   Clear
8:52 PM 45.0 °F 42.6 °F 30.0 °F 56% 29.87 in 10.0 mi NW 4.6 mph - N/A   Partly Cloudy
9:52 PM 44.1 °F 42.5 °F 28.9 °F 55% 29.88 in 10.0 mi NE 3.5 mph - N/A   Clear
10:52 PM 44.1 °F 41.5 °F 30.9 °F 60% 29.86 in 10.0 mi NE 4.6 mph - N/A   Clear
11:52 PM 45.0 °F - 28.0 °F 52% 29.85 in 10.0 mi Calm Calm - N/A   Clear